Starlink 6221

operational
NORAD ID: 56484 Int'l Des: 2023-064 Owner: SPXS Country: US Constellation: starlink
LEOCIRCULAR

Über Starlink 6221

Beschreibung wird geladen...

Live-Position

3D-Globus wird geladen...

Nächste Überflüge

Höhenverlauf

Altitude vs Time

uPlot chart will show altitude changes over time

Zweizeiliger Elementsatz

1 56484U 23064AN 25303.85797629 -.00045165 00000-0 -38389-2 0 9994
2 56484 69.9986 91.7316 0001805 258.0192 102.0765 14.97958681136294
Epoch: 30. Okt. 2025 • Age: 99 hours

Aktueller Status

Höhe 598.4 km
Geschwindigkeit 7.56 km/s
Subsatellitenpunkt -68.65°S, 24°W
Startdatum 10. Mai 2023
Alter 2.4 years
Typ internet

Technische Details

Klassifizierung Payload
Masse 305.00 kg
Trockenmasse 290.00 kg
Gesamtmasse 305.00 kg
Länge 0.20 m
Durchmesser 2.80 m
Spannweite 9.00 m
Form Box + pan
Hersteller SPXS
Bus-Typ Starlink
Phasenstatus In Orbit
Besitzer/Staat SPXS/US

Große Konstellationen

Loading constellations...